COSMOS 2536 (44422 NORAD) Tracking and Keplerian Element Data

This shows tracking and keplerian element data for the satellite.

Feedback or suggestion? Click here.




ElementValue
Catalog44422
NameCOSMOS 2536
Epoch Orbit437
Epoch Day221.17198078
Epoch Year2019
RAAN272.7582
Inclination97.8709
Eccentricity0.0009019
Argument of Perigee205.7524
Mean Anonmoly154.3236
Mean Motion14.84076196
Decay Rate5.82E-06
L11 44422U 19039B 19221.17198078 .00000582 00000-0 76208-4 0 9996
L22 44422 97.8709 272.7582 0009019 205.7524 154.3236 14.84076196 4379

Live tracking and technical data element details for COSMOS 2536 (NORAD 44422). COSMOS 2536 can be tracked NOW for your location showing map with azimuth and elevation plus other details from your city location.

Track the satellite on the map from your city or location and see movement details for azimuth, elevation, latitude, longitude, range, height, and movement on the map or in text.







IsCatalogInMostPopularTable: catalog: 44422, numindb: 10
Update: records affected: 1



GetName: 44422 COSMOS 2536

Hit Count: updated at: Wed, 21 Aug 2019 12:25:19 GMT